Time,TemperatureF,DewpointF,PressureIn,WindDirection,WindDirectionDegrees,WindSpeedMPH,WindSpeedGustMPH,Humidity,HourlyPrecipIn,Conditions,Clouds,dailyrainin,SoftwareType,DateUTC
2013-09-05 00:00:00,57.7,56.9,30.12,SW,219,0.0,0.0,97,0.00,RA,,0.00,WeatherDisplay:10.37,2013-09-05 04:00:00,
2013-09-05 00:01:00,57.6,56.8,30.12,SW,219,0.0,0.0,97,0.00,RA,,0.00,WeatherDisplay:10.37,2013-09-05 04:01:00,
2013-09-05 00:06:00,57.4,56.6,30.12,SW,219,0.0,0.0,97,0.00,RA,,0.00,WeatherDisplay:10.37,2013-09-05 04:06:00,
2013-09-05 00:11:00,57.3,56.5,30.12,SW,219,0.0,0.0,97,0.00,,,0.00,WeatherDisplay:10.37,2013-09-05 04:11:00,
2013-09-05 00:16:00,57.5,56.7,30.13,SW,219,0.0,0.0,97,0.00,,,0.00,WeatherDisplay:10.37,2013-09-05 04:16:00,
2013-09-05 00:21:00,57.4,56.6,30.13,SW,219,0.0,0.0,97,0.00,,,0.00,WeatherDisplay:10.37,2013-09-05 04:21:00,
2013-09-05 00:26:00,57.2,56.4,30.13,SW,219,0.0,0.0,97,0.00,,,0.00,WeatherDisplay:10.37,2013-09-05 04:26:00,
2013-09-05 00:31:00,57.0,56.2,30.13,SW,219,0.0,0.0,97,0.00,,,0.00,WeatherDisplay:10.37,2013-09-05 04:31:00,
2013-09-05 00:36:00,56.9,56.1,30.13,SW,219,1.0,0.0,97,0.00,,,0.00,WeatherDisplay:10.37,2013-09-05 04:36:00,
2013-09-05 00:41:00,56.8,56.0,30.13,SW,219,0.0,0.0,97,0.00,,,0.00,WeatherDisplay:10.37,2013-09-05 04:41:00,
2013-09-05 00:46:00,56.7,55.9,30.13,SW,219,0.0,0.0,97,0.00,,,0.00,WeatherDisplay:10.37,2013-09-05 04:46:00,
2013-09-05 00:52:00,56.6,55.8,30.13,SW,219,0.0,0.0,97,0.00,,,0.00,WeatherDisplay:10.37,2013-09-05 04:52:00,
2013-09-05 00:56:00,56.5,55.7,30.13,SW,219,1.2,0.0,97,0.00,,,0.00,WeatherDisplay:10.37,2013-09-05 04:56:00,
2013-09-05 01:02:00,56.5,55.7,30.13,SW,219,0.0,0.0,97,0.00,,,0.00,WeatherDisplay:10.37,2013-09-05 05:02:00,
2013-09-05 01:07:00,56.6,56.0,30.13,SW,219,0.0,0.0,98,0.00,,,0.00,WeatherDisplay:10.37,2013-09-05 05:07:00,
2013-09-05 01:12:00,56.5,55.7,30.13,SW,219,0.0,0.0,97,0.00,,,0.00,WeatherDisplay:10.37,2013-09-05 05:12:00,
2013-09-05 01:17:00,56.2,55.4,30.13,SW,219,0.0,0.0,97,0.00,,,0.00,WeatherDisplay:10.37,2013-09-05 05:17:00,
2013-09-05 01:22:00,56.1,55.3,30.14,SW,219,0.0,0.0,97,0.00,,,0.00,WeatherDisplay:10.37,2013-09-05 05:22:00,
2013-09-05 01:27:00,56.3,55.7,30.13,SW,219,0.0,0.0,98,0.00,,,0.00,WeatherDisplay:10.37,2013-09-05 05:27:00,
2013-09-05 01:32:00,56.3,55.7,30.13,SW,219,0.0,0.0,98,0.00,,,0.00,WeatherDisplay:10.37,2013-09-05 05:32:00,
2013-09-05 01:37:00,56.3,55.7,30.13,SW,219,0.0,0.0,98,0.00,,,0.00,WeatherDisplay:10.37,2013-09-05 05:37:00,
2013-09-05 01:42:00,56.2,55.6,30.13,SW,219,0.0,0.0,98,0.00,,,0.00,WeatherDisplay:10.37,2013-09-05 05:42:00,
2013-09-05 01:47:00,56.2,55.6,30.13,SW,219,0.0,0.0,98,0.00,,,0.00,WeatherDisplay:10.37,2013-09-05 05:47:00,
2013-09-05 01:52:00,56.2,55.6,30.13,SW,219,0.0,0.0,98,0.00,,,0.00,WeatherDisplay:10.37,2013-09-05 05:52:00,
2013-09-05 01:57:00,55.9,55.1,30.13,SW,219,0.0,0.0,97,0.00,,,0.00,WeatherDisplay:10.37,2013-09-05 05:57:00,
2013-09-05 02:02:00,55.6,54.8,30.13,SW,219,0.0,0.0,97,0.00,,,0.00,WeatherDisplay:10.37,2013-09-05 06:02:00,
2013-09-05 02:07:00,55.3,54.5,30.13,SW,219,0.0,0.0,97,0.00,,,0.00,WeatherDisplay:10.37,2013-09-05 06:07:00,
2013-09-05 02:12:00,54.9,54.1,30.13,SW,219,0.0,0.0,97,0.00,,,0.00,WeatherDisplay:10.37,2013-09-05 06:12:00,
2013-09-05 02:17:00,54.6,53.8,30.13,SW,219,0.0,0.0,97,0.00,,,0.00,WeatherDisplay:10.37,2013-09-05 06:17:00,
2013-09-05 02:22:00,54.7,54.1,30.12,SW,219,0.0,0.0,98,0.00,,,0.00,WeatherDisplay:10.37,2013-09-05 06:22:00,
2013-09-05 02:27:00,54.9,54.3,30.12,SW,219,0.0,0.0,98,0.00,,,0.00,WeatherDisplay:10.37,2013-09-05 06:27:00,
2013-09-05 02:32:00,54.9,54.3,30.13,SW,219,0.0,0.0,98,0.00,,,0.00,WeatherDisplay:10.37,2013-09-05 06:32:00,
2013-09-05 02:37:00,55.0,54.4,30.13,SW,219,0.0,0.0,98,0.00,,,0.00,WeatherDisplay:10.37,2013-09-05 06:37:00,
2013-09-05 02:42:00,54.7,54.1,30.13,SW,219,0.0,0.0,98,0.00,,,0.00,WeatherDisplay:10.37,2013-09-05 06:42:00,
2013-09-05 02:47:00,54.5,53.9,30.13,SW,219,0.0,0.0,98,0.00,,,0.00,WeatherDisplay:10.37,2013-09-05 06:47:00,
2013-09-05 02:52:00,54.3,53.7,30.12,SW,219,0.0,0.0,98,0.00,,,0.00,WeatherDisplay:10.37,2013-09-05 06:52:00,
2013-09-05 02:57:00,54.3,53.7,30.12,SW,219,0.0,0.0,98,0.00,,,0.00,WeatherDisplay:10.37,2013-09-05 06:57:00,
2013-09-05 03:02:00,54.2,53.6,30.12,SW,219,0.0,0.0,98,0.00,,,0.00,WeatherDisplay:10.37,2013-09-05 07:02:00,
2013-09-05 03:07:00,54.2,53.6,30.12,SW,219,0.0,0.0,98,0.00,,,0.00,WeatherDisplay:10.37,2013-09-05 07:07:00,
2013-09-05 03:12:00,54.0,53.4,30.12,SW,219,0.0,0.0,98,0.00,,,0.00,WeatherDisplay:10.37,2013-09-05 07:12:00,
2013-09-05 03:17:00,53.9,53.3,30.12,SW,219,0.0,0.0,98,0.00,,,0.00,WeatherDisplay:10.37,2013-09-05 07:17:00,
2013-09-05 03:22:00,53.9,53.3,30.12,SW,219,0.0,0.0,98,0.00,,,0.00,WeatherDisplay:10.37,2013-09-05 07:22:00,
2013-09-05 03:27:00,54.0,53.4,30.12,SW,219,1.2,1.2,98,0.00,,,0.00,WeatherDisplay:10.37,2013-09-05 07:27:00,
2013-09-05 03:32:00,54.2,53.6,30.12,SW,219,0.0,0.0,98,0.00,,,0.00,WeatherDisplay:10.37,2013-09-05 07:32:00,
2013-09-05 03:37:00,54.1,53.5,30.13,SW,219,0.0,0.0,98,0.00,,,0.00,WeatherDisplay:10.37,2013-09-05 07:37:00,
2013-09-05 03:42:00,54.0,53.4,30.12,SW,219,0.0,0.0,98,0.00,,,0.00,WeatherDisplay:10.37,2013-09-05 07:42:00,
2013-09-05 03:47:00,54.1,53.5,30.12,SW,219,0.0,0.0,98,0.00,,,0.00,WeatherDisplay:10.37,2013-09-05 07:47:00,
2013-09-05 03:52:00,54.1,53.5,30.12,SW,219,0.0,0.0,98,0.00,,,0.00,WeatherDisplay:10.37,2013-09-05 07:52:00,
2013-09-05 03:57:00,53.9,53.3,30.12,SW,219,0.0,0.0,98,0.00,,,0.00,WeatherDisplay:10.37,2013-09-05 07:57:00,
2013-09-05 04:02:00,53.8,53.2,30.12,SW,219,0.0,0.0,98,0.00,,,0.00,WeatherDisplay:10.37,2013-09-05 08:02:00,
2013-09-05 04:07:00,53.5,52.9,30.12,SW,219,0.0,0.0,98,0.00,,,0.00,WeatherDisplay:10.37,2013-09-05 08:07:00,
2013-09-05 04:12:00,53.3,52.8,30.11,SW,219,0.0,0.0,98,0.00,,,0.00,WeatherDisplay:10.37,2013-09-05 08:12:00,
2013-09-05 04:17:00,53.1,52.6,30.11,SW,219,0.0,0.0,98,0.00,,,0.00,WeatherDisplay:10.37,2013-09-05 08:17:00,
2013-09-05 04:22:00,52.9,52.4,30.12,SW,219,0.0,0.0,98,0.00,,,0.00,WeatherDisplay:10.37,2013-09-05 08:22:00,
2013-09-05 04:27:00,52.6,52.1,30.12,SW,219,0.0,0.0,98,0.00,,,0.00,WeatherDisplay:10.37,2013-09-05 08:27:00,
2013-09-05 04:32:00,52.5,52.0,30.12,SW,219,0.0,0.0,98,0.00,,,0.00,WeatherDisplay:10.37,2013-09-05 08:32:00,
2013-09-05 04:37:00,52.5,52.0,30.12,SW,219,0.0,0.0,98,0.00,,,0.00,WeatherDisplay:10.37,2013-09-05 08:37:00,
2013-09-05 04:42:00,52.7,52.2,30.12,SW,219,0.0,0.0,98,0.00,,,0.00,WeatherDisplay:10.37,2013-09-05 08:42:00,
2013-09-05 04:47:00,52.7,52.2,30.12,SW,219,0.0,0.0,98,0.00,,,0.00,WeatherDisplay:10.37,2013-09-05 08:47:00,
2013-09-05 04:52:00,52.8,52.3,30.12,SW,219,0.0,0.0,98,0.00,,,0.00,WeatherDisplay:10.37,2013-09-05 08:52:00,
2013-09-05 04:57:00,52.7,52.2,30.12,SW,219,0.0,0.0,98,0.00,,,0.00,WeatherDisplay:10.37,2013-09-05 08:57:00,
2013-09-05 05:02:00,52.5,52.0,30.12,SW,219,0.0,0.0,98,0.00,,,0.00,WeatherDisplay:10.37,2013-09-05 09:02:00,
2013-09-05 05:07:00,52.7,52.2,30.12,SW,219,0.0,0.0,98,0.00,,,0.00,WeatherDisplay:10.37,2013-09-05 09:07:00,
2013-09-05 05:12:00,52.7,52.2,30.12,SW,219,0.0,0.0,98,0.00,,,0.00,WeatherDisplay:10.37,2013-09-05 09:12:00,
2013-09-05 05:17:00,52.6,52.1,30.12,SW,219,0.0,0.0,98,0.00,,,0.00,WeatherDisplay:10.37,2013-09-05 09:17:00,
2013-09-05 05:22:00,52.6,52.1,30.12,SW,219,0.0,0.0,98,0.00,,,0.00,WeatherDisplay:10.37,2013-09-05 09:22:00,
2013-09-05 05:27:00,52.7,52.4,30.12,SW,219,0.0,0.0,99,0.00,,,0.00,WeatherDisplay:10.37,2013-09-05 09:27:00,
2013-09-05 05:32:00,52.5,52.0,30.13,SW,219,0.0,0.0,98,0.00,,,0.00,WeatherDisplay:10.37,2013-09-05 09:32:00,
2013-09-05 05:37:00,52.6,52.1,30.13,SW,219,0.0,0.0,98,0.00,,,0.00,WeatherDisplay:10.37,2013-09-05 09:37:00,
2013-09-05 05:42:00,52.6,52.1,30.12,SW,219,0.0,0.0,98,0.00,,,0.00,WeatherDisplay:10.37,2013-09-05 09:42:00,
2013-09-05 05:47:00,52.4,51.9,30.12,SW,219,0.0,0.0,98,0.00,,,0.00,WeatherDisplay:10.37,2013-09-05 09:47:00,
2013-09-05 05:52:00,52.4,51.9,30.13,SW,219,0.0,0.0,98,0.00,,,0.00,WeatherDisplay:10.37,2013-09-05 09:52:00,
2013-09-05 05:57:00,52.5,52.2,30.13,SW,219,0.0,0.0,99,0.00,,,0.00,WeatherDisplay:10.37,2013-09-05 09:57:00,
2013-09-05 06:02:00,52.3,51.8,30.13,SW,219,0.0,0.0,98,0.00,,,0.00,WeatherDisplay:10.37,2013-09-05 10:02:00,
2013-09-05 06:07:00,52.2,51.7,30.14,SW,219,0.0,0.0,98,0.00,,,0.00,WeatherDisplay:10.37,2013-09-05 10:07:00,
2013-09-05 06:12:00,52.3,51.8,30.14,SW,219,0.0,0.0,98,0.00,,,0.00,WeatherDisplay:10.37,2013-09-05 10:12:00,
2013-09-05 06:17:00,52.3,52.0,30.14,SW,219,0.0,0.0,99,0.00,,,0.00,WeatherDisplay:10.37,2013-09-05 10:17:00,
2013-09-05 06:23:00,52.2,51.7,30.14,SW,219,0.0,0.0,98,0.00,,,0.00,WeatherDisplay:10.37,2013-09-05 10:23:00,
2013-09-05 06:28:00,51.9,51.4,30.14,SW,219,0.0,0.0,98,0.00,,,0.00,WeatherDisplay:10.37,2013-09-05 10:28:00,
2013-09-05 06:33:00,51.7,51.2,30.14,SW,219,0.0,0.0,98,0.00,,,0.00,WeatherDisplay:10.37,2013-09-05 10:33:00,
2013-09-05 06:38:00,51.4,50.9,30.15,SW,219,0.0,0.0,98,0.00,,,0.00,WeatherDisplay:10.37,2013-09-05 10:38:00,
2013-09-05 06:43:00,51.1,50.6,30.15,SW,219,0.0,0.0,98,0.00,,,0.00,WeatherDisplay:10.37,2013-09-05 10:43:00,
2013-09-05 06:48:00,50.9,50.4,30.15,SW,219,0.0,0.0,98,0.00,,,0.00,WeatherDisplay:10.37,2013-09-05 10:48:00,
2013-09-05 06:53:00,50.8,50.3,30.14,SW,219,0.0,0.0,98,0.00,,,0.00,WeatherDisplay:10.37,2013-09-05 10:53:00,
2013-09-05 06:58:00,50.7,50.2,30.14,SW,219,0.0,0.0,98,0.00,,,0.00,WeatherDisplay:10.37,2013-09-05 10:58:00,
2013-09-05 07:03:00,50.8,50.5,30.15,SW,219,0.0,0.0,99,0.00,CLR,,0.00,WeatherDisplay:10.37,2013-09-05 11:03:00,
2013-09-05 07:08:00,50.7,50.4,30.15,SW,219,0.0,0.0,99,0.00,CLR,,0.00,WeatherDisplay:10.37,2013-09-05 11:08:00,
2013-09-05 07:13:00,50.7,50.4,30.15,SW,219,0.0,0.0,99,0.00,CLR,,0.00,WeatherDisplay:10.37,2013-09-05 11:13:00,
2013-09-05 07:18:00,50.9,50.6,30.15,SW,219,0.0,0.0,99,0.00,CLR,,0.00,WeatherDisplay:10.37,2013-09-05 11:18:00,
2013-09-05 07:23:00,51.0,50.7,30.15,SW,219,0.0,0.0,99,0.00,CLR,,0.00,WeatherDisplay:10.37,2013-09-05 11:23:00,
2013-09-05 07:28:00,51.2,50.9,30.16,SW,219,0.0,0.0,99,0.00,CLR,,0.00,WeatherDisplay:10.37,2013-09-05 11:28:00,
2013-09-05 07:33:00,51.5,51.2,30.16,SW,219,0.0,0.0,99,0.00,CLR,,0.00,WeatherDisplay:10.37,2013-09-05 11:33:00,
2013-09-05 07:38:00,51.8,51.5,30.16,SW,219,0.0,0.0,99,0.00,CLR,,0.00,WeatherDisplay:10.37,2013-09-05 11:38:00,
2013-09-05 07:43:00,52.2,51.9,30.16,SW,219,0.0,0.0,99,0.00,CLR,,0.00,WeatherDisplay:10.37,2013-09-05 11:43:00,
2013-09-05 07:48:00,52.7,52.4,30.17,SW,219,1.2,1.2,99,0.00,CLR,,0.00,WeatherDisplay:10.37,2013-09-05 11:48:00,
2013-09-05 07:53:00,53.3,53.0,30.17,SW,216,1.2,1.2,99,0.00,CLR,,0.00,WeatherDisplay:10.37,2013-09-05 11:53:00,
2013-09-05 07:58:00,53.8,53.5,30.17,SW,215,0.0,0.0,99,0.00,CLR,,0.00,WeatherDisplay:10.37,2013-09-05 11:58:00,
2013-09-05 08:03:00,54.4,54.1,30.17,SW,215,0.0,0.0,99,0.00,CLR,,0.00,WeatherDisplay:10.37,2013-09-05 12:03:00,
2013-09-05 08:08:00,55.3,55.0,30.17,SW,215,1.2,0.0,99,0.00,CLR,,0.00,WeatherDisplay:10.37,2013-09-05 12:08:00,
2013-09-05 08:13:00,56.5,56.2,30.17,SW,215,0.0,0.0,99,0.00,CLR,,0.00,WeatherDisplay:10.37,2013-09-05 12:13:00,
2013-09-05 08:18:00,56.9,56.6,30.16,East,80,2.3,2.3,99,0.00,CLR,,0.00,WeatherDisplay:10.37,2013-09-05 12:18:00,
2013-09-05 08:23:00,57.5,57.2,30.16,SSE,148,1.2,0.0,99,0.00,CLR,,0.00,WeatherDisplay:10.37,2013-09-05 12:23:00,
2013-09-05 08:28:00,58.2,57.9,30.16,SE,135,1.2,1.2,99,0.00,CLR,,0.00,WeatherDisplay:10.37,2013-09-05 12:28:00,
2013-09-05 08:33:00,58.7,58.4,30.16,SE,141,2.3,2.3,99,0.00,CLR,,0.00,WeatherDisplay:10.37,2013-09-05 12:33:00,
2013-09-05 08:38:00,59.3,58.7,30.16,SE,130,1.2,1.2,98,0.00,CLR,,0.00,WeatherDisplay:10.37,2013-09-05 12:38:00,
2013-09-05 08:43:00,60.1,59.2,30.16,SE,132,1.2,1.2,97,0.00,CLR,,0.00,WeatherDisplay:10.37,2013-09-05 12:43:00,
2013-09-05 08:48:00,61.0,59.9,30.16,SE,140,1.2,1.2,96,0.00,CLR,,0.00,WeatherDisplay:10.37,2013-09-05 12:48:00,
2013-09-05 08:53:00,61.5,59.5,30.16,SE,138,1.2,1.2,93,0.00,CLR,,0.00,WeatherDisplay:10.37,2013-09-05 12:53:00,
2013-09-05 08:58:00,62.0,59.6,30.16,SE,141,2.3,2.3,92,0.00,CLR,,0.00,WeatherDisplay:10.37,2013-09-05 12:58:00,
2013-09-05 09:03:00,62.3,59.3,30.16,SE,126,1.2,1.2,90,0.00,CLR,,0.00,WeatherDisplay:10.37,2013-09-05 13:03:00,
2013-09-05 09:08:00,62.6,59.3,30.16,SE,140,1.2,1.2,89,0.00,CLR,,0.00,WeatherDisplay:10.37,2013-09-05 13:08:00,
2013-09-05 09:13:00,63.3,60.3,30.15,SE,140,1.2,1.2,90,0.00,CLR,,0.00,WeatherDisplay:10.37,2013-09-05 13:13:00,
2013-09-05 09:18:00,63.5,60.8,30.15,SE,140,0.0,0.0,91,0.00,CLR,,0.00,WeatherDisplay:10.37,2013-09-05 13:18:00,
2013-09-05 09:23:00,64.3,61.0,30.15,SE,140,1.2,0.0,89,0.00,CLR,,0.00,WeatherDisplay:10.37,2013-09-05 13:23:00,
2013-09-05 09:28:00,64.6,61.3,30.15,SE,140,0.0,0.0,89,0.00,CLR,,0.00,WeatherDisplay:10.37,2013-09-05 13:28:00,
2013-09-05 09:33:00,65.2,61.2,30.16,SE,137,0.0,0.0,87,0.00,CLR,,0.00,WeatherDisplay:10.37,2013-09-05 13:33:00,
2013-09-05 09:38:00,66.0,61.4,30.16,SE,136,1.2,1.2,85,0.00,CLR,,0.00,WeatherDisplay:10.37,2013-09-05 13:38:00,
2013-09-05 09:43:00,66.4,61.8,30.16,SE,136,0.0,0.0,85,0.00,CLR,,0.00,WeatherDisplay:10.37,2013-09-05 13:43:00,
2013-09-05 09:48:00,67.2,60.8,30.16,SE,146,2.3,2.3,80,0.00,CLR,,0.00,WeatherDisplay:10.37,2013-09-05 13:48:00,
2013-09-05 09:53:00,67.5,61.5,30.16,South,170,1.2,1.2,81,0.00,CLR,,0.00,WeatherDisplay:10.37,2013-09-05 13:53:00,
2013-09-05 09:58:00,68.6,62.5,30.16,SSW,194,1.2,1.2,81,0.00,CLR,,0.00,WeatherDisplay:10.37,2013-09-05 13:58:00,
2013-09-05 10:03:00,69.2,61.7,30.16,West,259,1.2,1.2,77,0.00,CLR,,0.00,WeatherDisplay:10.37,2013-09-05 14:03:00,
2013-09-05 10:08:00,69.6,62.8,30.15,West,260,1.0,1.0,79,0.00,CLR,,0.00,WeatherDisplay:10.37,2013-09-05 14:08:00,
2013-09-05 10:13:00,69.7,62.2,30.16,West,278,1.2,1.2,77,0.00,CLR,,0.00,WeatherDisplay:10.37,2013-09-05 14:13:00,
2013-09-05 10:18:00,70.0,62.8,30.16,West,278,0.0,0.0,78,0.00,CLR,,0.00,WeatherDisplay:10.37,2013-09-05 14:18:00,
2013-09-05 10:23:00,71.2,64.0,30.16,SSW,210,1.2,1.2,78,0.00,CLR,,0.00,WeatherDisplay:10.37,2013-09-05 14:23:00,
2013-09-05 10:28:00,71.8,63.8,30.16,WSW,252,0.0,0.0,76,0.00,CLR,,0.00,WeatherDisplay:10.37,2013-09-05 14:28:00,
2013-09-05 10:33:00,72.3,63.9,30.16,SW,234,1.2,1.2,75,0.00,CLR,,0.00,WeatherDisplay:10.37,2013-09-05 14:33:00,
2013-09-05 10:38:00,72.3,62.4,30.15,West,261,1.0,0.0,71,0.00,CLR,,0.00,WeatherDisplay:10.37,2013-09-05 14:38:00,
2013-09-05 10:43:00,72.7,63.9,30.16,SW,236,1.2,1.2,74,0.00,CLR,,0.00,WeatherDisplay:10.37,2013-09-05 14:43:00,
2013-09-05 10:48:00,72.7,62.8,30.16,SW,224,2.3,2.3,71,0.00,CLR,,0.00,WeatherDisplay:10.37,2013-09-05 14:48:00,
2013-09-05 10:53:00,73.2,61.2,30.16,SSE,148,3.5,3.5,66,0.00,CLR,,0.00,WeatherDisplay:10.37,2013-09-05 14:53:00,
2013-09-05 10:58:00,73.1,61.5,30.15,SSE,161,1.2,1.2,67,0.00,CLR,,0.00,WeatherDisplay:10.37,2013-09-05 14:58:00,
2013-09-05 11:03:00,73.5,61.4,30.15,NW,312,1.2,1.2,66,0.00,CLR,,0.00,WeatherDisplay:10.37,2013-09-05 15:03:00,
2013-09-05 11:08:00,73.2,60.3,30.15,ENE,75,1.2,1.2,64,0.00,CLR,,0.00,WeatherDisplay:10.37,2013-09-05 15:08:00,
2013-09-05 11:13:00,73.8,60.4,30.16,South,191,1.2,1.2,63,0.00,CLR,,0.00,WeatherDisplay:10.37,2013-09-05 15:13:00,
2013-09-05 11:18:00,74.3,59.5,30.16,South,174,3.5,3.5,60,0.00,CLR,,0.00,WeatherDisplay:10.37,2013-09-05 15:18:00,
2013-09-05 11:23:00,74.8,58.5,30.16,NNW,338,5.8,5.8,57,0.00,CLR,,0.00,WeatherDisplay:10.37,2013-09-05 15:23:00,
2013-09-05 11:28:00,74.0,56.3,30.16,North,1,4.6,4.6,54,0.00,CLR,,0.00,WeatherDisplay:10.37,2013-09-05 15:28:00,
2013-09-05 11:33:00,73.6,55.9,30.16,WNW,295,4.6,4.6,54,0.00,CLR,,0.00,WeatherDisplay:10.37,2013-09-05 15:33:00,
2013-09-05 11:38:00,73.7,56.5,30.16,NNE,33,3.5,3.7,55,0.00,CLR,,0.00,WeatherDisplay:10.37,2013-09-05 15:38:00,
2013-09-05 11:43:00,73.9,59.6,30.16,ENE,57,3.5,3.5,61,0.00,CLR,,0.00,WeatherDisplay:10.37,2013-09-05 15:43:00,
2013-09-05 11:48:00,74.2,56.0,30.16,NW,320,3.5,3.5,53,0.00,CLR,,0.00,WeatherDisplay:10.37,2013-09-05 15:48:00,
2013-09-05 11:53:00,73.8,56.6,30.16,East,89,3.5,3.5,55,0.00,CLR,,0.00,WeatherDisplay:10.37,2013-09-05 15:53:00,
2013-09-05 11:58:00,74.6,59.3,30.16,NE,56,3.0,3.0,59,0.00,CLR,,0.00,WeatherDisplay:10.37,2013-09-05 15:58:00,
2013-09-05 12:03:00,75.1,57.8,30.16,WNW,282,2.3,2.3,55,0.00,CLR,,0.00,WeatherDisplay:10.37,2013-09-05 16:03:00,
2013-09-05 12:08:00,75.5,56.6,30.16,SE,136,2.0,2.0,52,0.00,CLR,,0.00,WeatherDisplay:10.37,2013-09-05 16:08:00,
2013-09-05 12:13:00,76.0,59.7,30.16,North,5,2.0,2.0,57,0.00,CLR,,0.00,WeatherDisplay:10.37,2013-09-05 16:13:00,
2013-09-05 12:18:00,76.1,57.2,30.16,West,270,4.6,4.6,52,0.00,CLR,,0.00,WeatherDisplay:10.37,2013-09-05 16:18:00,
2013-09-05 12:24:00,76.4,58.0,30.16,NW,314,5.8,5.8,53,0.00,CLR,,0.00,WeatherDisplay:10.37,2013-09-05 16:24:00,
2013-09-05 12:29:00,76.6,55.4,30.16,NW,314,8.1,8.1,48,0.00,CLR,,0.00,WeatherDisplay:10.37,2013-09-05 16:29:00,
2013-09-05 12:34:00,76.6,57.1,30.15,NW,307,3.5,3.5,51,0.00,CLR,,0.00,WeatherDisplay:10.37,2013-09-05 16:34:00,
2013-09-05 12:39:00,76.7,58.3,30.15,SE,138,2.0,2.0,53,0.00,CLR,,0.00,WeatherDisplay:10.37,2013-09-05 16:39:00,
2013-09-05 12:44:00,76.5,57.0,30.15,SSE,158,3.5,3.5,51,0.00,CLR,,0.00,WeatherDisplay:10.37,2013-09-05 16:44:00,
2013-09-05 12:49:00,76.2,57.3,30.15,East,92,1.2,1.2,52,0.00,CLR,,0.00,WeatherDisplay:10.37,2013-09-05 16:49:00,
2013-09-05 12:54:00,77.0,58.0,30.15,ENE,75,3.5,3.5,52,0.00,CLR,,0.00,WeatherDisplay:10.37,2013-09-05 16:54:00,
2013-09-05 12:59:00,76.7,58.8,30.15,West,261,1.2,0.0,54,0.00,CLR,,0.00,WeatherDisplay:10.37,2013-09-05 16:59:00,
2013-09-05 13:04:00,76.9,56.8,30.15,NW,312,2.3,2.3,50,0.00,CLR,,0.00,WeatherDisplay:10.37,2013-09-05 17:04:00,
2013-09-05 13:09:00,77.6,58.6,30.14,West,262,1.2,0.0,52,0.00,CLR,,0.00,WeatherDisplay:10.37,2013-09-05 17:09:00,
2013-09-05 13:14:00,78.2,56.3,30.14,West,264,4.6,4.6,47,0.00,CLR,,0.00,WeatherDisplay:10.37,2013-09-05 17:14:00,
2013-09-05 13:19:00,79.0,59.3,30.14,East,81,3.5,3.5,51,0.00,CLR,,0.00,WeatherDisplay:10.37,2013-09-05 17:19:00,
2013-09-05 13:24:00,78.6,57.3,30.14,WNW,288,2.3,2.3,48,0.00,CLR,,0.00,WeatherDisplay:10.37,2013-09-05 17:24:00,
2013-09-05 13:29:00,78.3,58.1,30.14,WNW,297,5.0,5.0,50,0.00,CLR,,0.00,WeatherDisplay:10.37,2013-09-05 17:29:00,
2013-09-05 13:34:00,78.3,55.8,30.14,WSW,244,2.3,2.3,46,0.00,CLR,,0.00,WeatherDisplay:10.37,2013-09-05 17:34:00,
2013-09-05 13:39:00,79.0,60.4,30.14,SE,126,3.5,3.5,53,0.00,CLR,,0.00,WeatherDisplay:10.37,2013-09-05 17:39:00,
2013-09-05 13:44:00,79.6,61.0,30.14,WSW,258,1.0,1.0,53,0.00,CLR,,0.00,WeatherDisplay:10.37,2013-09-05 17:44:00,
2013-09-05 13:49:00,80.1,59.2,30.14,WNW,286,2.3,2.3,49,0.00,CLR,,0.00,WeatherDisplay:10.37,2013-09-05 17:49:00,
2013-09-05 13:54:00,79.8,58.9,30.14,WSW,248,2.3,2.3,49,0.00,CLR,,0.00,WeatherDisplay:10.37,2013-09-05 17:54:00,
2013-09-05 13:59:00,79.4,60.2,30.14,NNW,344,4.0,4.0,52,0.00,CLR,,0.00,WeatherDisplay:10.37,2013-09-05 17:59:00,
2013-09-05 14:04:00,78.2,58.6,30.14,NW,312,5.0,5.0,51,0.00,CLR,,0.00,WeatherDisplay:10.37,2013-09-05 18:04:00,
2013-09-05 14:09:00,78.2,59.7,30.14,WSW,257,4.6,4.6,53,0.00,CLR,,0.00,WeatherDisplay:10.37,2013-09-05 18:09:00,
2013-09-05 14:14:00,78.9,60.3,30.13,ENE,71,3.5,3.5,53,0.00,CLR,,0.00,WeatherDisplay:10.37,2013-09-05 18:14:00,
2013-09-05 14:19:00,79.1,58.9,30.13,NNW,328,3.5,3.5,50,0.00,CLR,,0.00,WeatherDisplay:10.37,2013-09-05 18:19:00,
2013-09-05 14:24:00,78.4,58.2,30.13,ENE,77,3.5,3.5,50,0.00,CLR,,0.00,WeatherDisplay:10.37,2013-09-05 18:24:00,
2013-09-05 14:29:00,78.3,58.7,30.13,WSW,257,2.3,2.3,51,0.00,CLR,,0.00,WeatherDisplay:10.37,2013-09-05 18:29:00,
2013-09-05 14:34:00,79.5,60.3,30.13,NW,323,3.5,3.5,52,0.00,CLR,,0.00,WeatherDisplay:10.37,2013-09-05 18:34:00,
2013-09-05 14:39:00,79.7,61.1,30.13,WSW,256,3.5,3.5,53,0.00,CLR,,0.00,WeatherDisplay:10.37,2013-09-05 18:39:00,
2013-09-05 14:44:00,80.2,59.9,30.13,NW,316,3.5,3.5,50,0.00,CLR,,0.00,WeatherDisplay:10.37,2013-09-05 18:44:00,
2013-09-05 14:49:00,79.5,61.4,30.12,WSW,243,3.5,3.5,54,0.00,CLR,,0.00,WeatherDisplay:10.37,2013-09-05 18:49:00,
2013-09-05 14:54:00,79.3,60.7,30.12,West,269,3.5,3.5,53,0.00,CLR,,0.00,WeatherDisplay:10.37,2013-09-05 18:54:00,
2013-09-05 14:59:00,80.1,59.8,30.12,WSW,258,3.5,3.5,50,0.00,CLR,,0.00,WeatherDisplay:10.37,2013-09-05 18:59:00,
2013-09-05 15:04:00,80.1,60.3,30.12,WSW,244,3.0,3.0,51,0.00,CLR,,0.00,WeatherDisplay:10.37,2013-09-05 19:04:00,
2013-09-05 15:09:00,80.6,60.2,30.12,WNW,294,3.5,3.5,50,0.00,CLR,,0.00,WeatherDisplay:10.37,2013-09-05 19:09:00,
2013-09-05 15:14:00,80.9,61.1,30.12,NW,320,3.5,3.5,51,0.00,CLR,,0.00,WeatherDisplay:10.37,2013-09-05 19:14:00,
2013-09-05 15:19:00,80.9,59.4,30.11,NW,311,3.5,3.5,48,0.00,CLR,,0.00,WeatherDisplay:10.37,2013-09-05 19:19:00,
2013-09-05 15:24:00,80.8,59.3,30.11,NW,316,4.6,4.6,48,0.00,CLR,,0.00,WeatherDisplay:10.37,2013-09-05 19:24:00,
2013-09-05 15:29:00,81.4,61.0,30.11,WSW,249,3.5,3.5,50,0.00,CLR,,0.00,WeatherDisplay:10.37,2013-09-05 19:29:00,
2013-09-05 15:34:00,81.7,58.9,30.11,NW,310,4.0,4.0,46,0.00,CLR,,0.00,WeatherDisplay:10.37,2013-09-05 19:34:00,
2013-09-05 15:39:00,81.9,59.7,30.11,NW,323,6.9,6.9,47,0.00,CLR,,0.00,WeatherDisplay:10.37,2013-09-05 19:39:00,
2013-09-05 15:44:00,81.4,59.8,30.11,West,273,3.5,3.5,48,0.00,CLR,,0.00,WeatherDisplay:10.37,2013-09-05 19:44:00,
2013-09-05 15:49:00,81.6,60.6,30.10,NW,311,1.2,1.2,49,0.00,CLR,,0.00,WeatherDisplay:10.37,2013-09-05 19:49:00,
2013-09-05 15:54:00,81.2,58.5,30.10,WSW,257,3.5,3.5,46,0.00,CLR,,0.00,WeatherDisplay:10.37,2013-09-05 19:54:00,
2013-09-05 15:59:00,81.6,59.4,30.10,NNW,333,4.0,4.0,47,0.00,CLR,,0.00,WeatherDisplay:10.37,2013-09-05 19:59:00,
2013-09-05 16:04:00,81.2,60.2,30.10,West,271,1.2,0.0,49,0.00,CLR,,0.00,WeatherDisplay:10.37,2013-09-05 20:04:00,
2013-09-05 16:09:00,81.8,59.6,30.10,ENE,74,3.5,3.5,47,0.00,CLR,,0.00,WeatherDisplay:10.37,2013-09-05 20:09:00,
2013-09-05 16:14:00,81.0,59.5,30.10,SSE,153,3.0,3.0,48,0.00,CLR,,0.00,WeatherDisplay:10.37,2013-09-05 20:14:00,
2013-09-05 16:19:00,81.3,60.3,30.10,WNW,303,4.0,4.0,49,0.00,CLR,,0.00,WeatherDisplay:10.37,2013-09-05 20:19:00,
2013-09-05 16:24:00,81.6,60.0,30.10,West,271,4.6,4.6,48,0.00,CLR,,0.00,WeatherDisplay:10.37,2013-09-05 20:24:00,
2013-09-05 16:29:00,81.8,59.6,30.10,WSW,251,3.5,3.5,47,0.00,CLR,,0.00,WeatherDisplay:10.37,2013-09-05 20:29:00,
2013-09-05 16:34:00,82.2,60.6,30.10,WSW,248,3.5,3.5,48,0.00,CLR,,0.00,WeatherDisplay:10.37,2013-09-05 20:34:00,
2013-09-05 16:39:00,82.3,60.6,30.10,WNW,301,6.9,6.9,48,0.00,CLR,,0.00,WeatherDisplay:10.37,2013-09-05 20:39:00,
2013-09-05 16:44:00,82.1,60.5,30.10,West,262,2.3,2.3,48,0.00,CLR,,0.00,WeatherDisplay:10.37,2013-09-05 20:44:00,
2013-09-05 16:49:00,82.9,60.0,30.10,NW,319,6.0,6.0,46,0.00,CLR,,0.00,WeatherDisplay:10.37,2013-09-05 20:49:00,
2013-09-05 16:54:00,82.3,60.1,30.10,West,279,1.2,1.2,47,0.00,CLR,,0.00,WeatherDisplay:10.37,2013-09-05 20:54:00,
2013-09-05 16:59:00,81.3,58.5,30.10,NW,306,3.5,3.5,46,0.00,CLR,,0.00,WeatherDisplay:10.37,2013-09-05 20:59:00,
2013-09-05 17:04:00,80.4,58.9,30.10,WNW,292,1.2,0.0,48,0.00,CLR,,0.00,WeatherDisplay:10.37,2013-09-05 21:04:00,
2013-09-05 17:09:00,80.2,60.4,30.10,NW,306,6.0,6.0,51,0.00,CLR,,0.00,WeatherDisplay:10.37,2013-09-05 21:09:00,
2013-09-05 17:14:00,79.9,59.6,30.10,West,281,6.9,6.9,50,0.00,CLR,,0.00,WeatherDisplay:10.37,2013-09-05 21:14:00,
2013-09-05 17:19:00,79.4,59.7,30.10,WNW,300,3.5,3.5,51,0.00,CLR,,0.00,WeatherDisplay:10.37,2013-09-05 21:19:00,
2013-09-05 17:24:00,79.7,60.5,30.10,WSW,251,3.5,3.5,52,0.00,CLR,,0.00,WeatherDisplay:10.37,2013-09-05 21:24:00,
2013-09-05 17:29:00,80.4,60.6,30.10,West,262,1.2,1.2,51,0.00,CLR,,0.00,WeatherDisplay:10.37,2013-09-05 21:29:00,
2013-09-05 17:34:00,81.4,61.0,30.10,West,262,3.5,3.5,50,0.00,CLR,,0.00,WeatherDisplay:10.37,2013-09-05 21:34:00,
2013-09-05 17:39:00,81.5,62.2,30.10,NW,306,2.0,2.0,52,0.00,CLR,,0.00,WeatherDisplay:10.37,2013-09-05 21:39:00,
2013-09-05 17:44:00,81.8,63.5,30.10,WSW,255,3.5,3.5,54,0.00,CLR,,0.00,WeatherDisplay:10.37,2013-09-05 21:44:00,
2013-09-05 17:49:00,81.3,62.5,30.09,NW,312,3.5,3.5,53,0.00,CLR,,0.00,WeatherDisplay:10.37,2013-09-05 21:49:00,
2013-09-05 17:54:00,81.2,62.4,30.10,NW,306,2.3,2.3,53,0.00,CLR,,0.00,WeatherDisplay:10.37,2013-09-05 21:54:00,
2013-09-05 17:59:00,81.2,61.4,30.10,NW,306,2.3,2.3,51,0.00,CLR,,0.00,WeatherDisplay:10.37,2013-09-05 21:59:00,
2013-09-05 18:04:00,80.9,61.6,30.10,NW,314,4.0,4.0,52,0.00,CLR,,0.00,WeatherDisplay:10.37,2013-09-05 22:04:00,
2013-09-05 18:09:00,80.4,61.7,30.10,West,279,3.5,3.5,53,0.00,CLR,,0.00,WeatherDisplay:10.37,2013-09-05 22:09:00,
2013-09-05 18:14:00,80.5,62.3,30.10,WNW,300,4.6,4.6,54,0.00,CLR,,0.00,WeatherDisplay:10.37,2013-09-05 22:14:00,
2013-09-05 18:19:00,80.2,61.5,30.10,NW,324,3.5,3.5,53,0.00,CLR,,0.00,WeatherDisplay:10.37,2013-09-05 22:19:00,
2013-09-05 18:25:00,79.8,61.1,30.10,NNW,327,3.5,3.5,53,0.00,CLR,,0.00,WeatherDisplay:10.37,2013-09-05 22:25:00,
2013-09-05 18:30:00,79.6,61.0,30.10,NW,316,6.0,6.0,53,0.00,CLR,,0.00,WeatherDisplay:10.37,2013-09-05 22:30:00,
2013-09-05 18:35:00,79.4,59.7,30.10,NE,43,3.5,3.5,51,0.00,CLR,,0.00,WeatherDisplay:10.37,2013-09-05 22:35:00,
2013-09-05 18:40:00,79.0,59.3,30.10,NW,307,3.5,3.5,51,0.00,CLR,,0.00,WeatherDisplay:10.37,2013-09-05 22:40:00,
2013-09-05 18:45:00,79.3,59.0,30.10,NNW,331,1.0,3.0,50,0.00,CLR,,0.00,WeatherDisplay:10.37,2013-09-05 22:45:00,
2013-09-05 18:50:00,79.5,58.7,30.10,NW,324,3.5,3.5,49,0.00,CLR,,0.00,WeatherDisplay:10.37,2013-09-05 22:50:00,
2013-09-05 18:55:00,78.8,58.6,30.10,North,358,1.0,3.0,50,0.00,CLR,,0.00,WeatherDisplay:10.37,2013-09-05 22:55:00,
2013-09-05 19:00:00,78.5,59.4,30.10,NNW,333,1.0,4.0,52,0.00,CLR,,0.00,WeatherDisplay:10.37,2013-09-05 23:00:00,
2013-09-05 19:05:00,78.3,59.2,30.10,NW,319,3.5,3.5,52,0.00,CLR,,0.00,WeatherDisplay:10.37,2013-09-05 23:05:00,
2013-09-05 19:10:00,78.4,59.9,30.10,NW,322,0.0,1.0,53,0.00,CLR,,0.00,WeatherDisplay:10.37,2013-09-05 23:10:00,
2013-09-05 19:15:00,78.7,60.2,30.10,NW,319,0.0,1.0,53,0.00,CLR,,0.00,WeatherDisplay:10.37,2013-09-05 23:15:00,
2013-09-05 19:20:00,78.7,60.1,30.10,NW,319,1.2,1.2,53,0.00,CLR,,0.00,WeatherDisplay:10.37,2013-09-05 23:20:00,
2013-09-05 19:25:00,78.3,60.8,30.10,NW,319,0.0,0.0,55,0.00,CLR,,0.00,WeatherDisplay:10.37,2013-09-05 23:25:00,
2013-09-05 19:30:00,78.1,62.1,30.10,NW,319,0.0,0.0,58,0.00,CLR,,0.00,WeatherDisplay:10.37,2013-09-05 23:30:00,
2013-09-05 19:35:00,76.7,61.8,30.10,NW,319,0.0,0.0,60,0.00,CLR,,0.00,WeatherDisplay:10.37,2013-09-05 23:35:00,
2013-09-05 19:40:00,75.1,61.7,30.10,NW,319,0.0,0.0,63,0.00,CLR,,0.00,WeatherDisplay:10.37,2013-09-05 23:40:00,
2013-09-05 19:45:00,73.6,61.5,30.10,NW,319,0.0,0.0,66,0.00,CLR,,0.00,WeatherDisplay:10.37,2013-09-05 23:45:00,
2013-09-05 19:50:00,72.2,61.9,30.10,NW,319,0.0,0.0,70,0.00,CLR,,0.00,WeatherDisplay:10.37,2013-09-05 23:50:00,
2013-09-05 19:55:00,71.1,61.2,30.10,NW,319,0.0,0.0,71,0.00,CLR,,0.00,WeatherDisplay:10.37,2013-09-05 23:55:00,
2013-09-05 20:00:00,70.0,61.3,30.10,NW,319,0.0,0.0,74,0.00,CLR,,0.00,WeatherDisplay:10.37,2013-09-06 00:00:00,
2013-09-05 20:05:00,69.0,61.1,30.10,NW,319,0.0,0.0,76,0.00,,,0.00,WeatherDisplay:10.37,2013-09-06 00:05:00,
2013-09-05 20:10:00,68.3,61.5,30.11,NW,319,0.0,0.0,79,0.00,,,0.00,WeatherDisplay:10.37,2013-09-06 00:10:00,
2013-09-05 20:15:00,67.6,61.2,30.11,NW,319,0.0,0.0,80,0.00,,,0.00,WeatherDisplay:10.37,2013-09-06 00:15:00,
2013-09-05 20:20:00,67.0,61.0,30.11,NW,319,0.0,0.0,81,0.00,,,0.00,WeatherDisplay:10.37,2013-09-06 00:20:00,
2013-09-05 20:25:00,66.4,61.1,30.11,NW,319,0.0,0.0,83,0.00,,,0.00,WeatherDisplay:10.37,2013-09-06 00:25:00,
2013-09-05 20:30:00,65.9,60.9,30.11,NW,319,0.0,0.0,84,0.00,,,0.00,WeatherDisplay:10.37,2013-09-06 00:30:00,
2013-09-05 20:35:00,65.5,60.6,30.11,NW,319,0.0,0.0,84,0.00,,,0.00,WeatherDisplay:10.37,2013-09-06 00:35:00,
2013-09-05 20:40:00,65.1,60.5,30.12,NW,319,0.0,0.0,85,0.00,,,0.00,WeatherDisplay:10.37,2013-09-06 00:40:00,
2013-09-05 20:45:00,64.7,60.4,30.12,NW,319,0.0,0.0,86,0.00,,,0.00,WeatherDisplay:10.37,2013-09-06 00:45:00,
2013-09-05 20:50:00,64.4,60.4,30.12,NW,319,0.0,0.0,87,0.00,,,0.00,WeatherDisplay:10.37,2013-09-06 00:50:00,
2013-09-05 20:55:00,64.1,60.8,30.12,NW,319,0.0,0.0,89,0.00,,,0.00,WeatherDisplay:10.37,2013-09-06 00:55:00,
2013-09-05 21:00:00,63.8,60.5,30.13,NW,319,0.0,0.0,89,0.00,,,0.00,WeatherDisplay:10.37,2013-09-06 01:00:00,
2013-09-05 21:05:00,63.6,60.3,30.13,NW,319,0.0,0.0,89,0.00,,,0.00,WeatherDisplay:10.37,2013-09-06 01:05:00,
2013-09-05 21:10:00,63.3,60.3,30.13,NW,319,0.0,0.0,90,0.00,,,0.00,WeatherDisplay:10.37,2013-09-06 01:10:00,
2013-09-05 21:15:00,63.1,60.1,30.13,NW,319,0.0,0.0,90,0.00,,,0.00,WeatherDisplay:10.37,2013-09-06 01:15:00,
2013-09-05 21:20:00,62.9,60.2,30.14,NW,319,0.0,1.0,91,0.00,,,0.00,WeatherDisplay:10.37,2013-09-06 01:20:00,
2013-09-05 21:25:00,62.7,60.0,30.14,NW,319,0.0,0.0,91,0.00,,,0.00,WeatherDisplay:10.37,2013-09-06 01:25:00,
2013-09-05 21:30:00,62.5,59.8,30.14,NW,319,0.0,0.0,91,0.00,,,0.00,WeatherDisplay:10.37,2013-09-06 01:30:00,
2013-09-05 21:35:00,62.3,59.9,30.14,NW,319,0.0,0.0,92,0.00,,,0.00,WeatherDisplay:10.37,2013-09-06 01:35:00,
2013-09-05 21:40:00,62.2,59.8,30.14,NW,319,0.0,0.0,92,0.00,,,0.00,WeatherDisplay:10.37,2013-09-06 01:40:00,
2013-09-05 21:45:00,62.0,59.6,30.14,NW,319,0.0,0.0,92,0.00,,,0.00,WeatherDisplay:10.37,2013-09-06 01:45:00,
2013-09-05 21:50:00,61.9,59.9,30.14,NW,319,0.0,0.0,93,0.00,,,0.00,WeatherDisplay:10.37,2013-09-06 01:50:00,
2013-09-05 21:55:00,61.8,59.8,30.15,NW,319,0.0,0.0,93,0.00,,,0.00,WeatherDisplay:10.37,2013-09-06 01:55:00,
2013-09-05 22:00:00,61.6,59.6,30.15,NW,319,0.0,0.0,93,0.00,,,0.00,WeatherDisplay:10.37,2013-09-06 02:00:00,
2013-09-05 22:05:00,61.6,59.9,30.15,NW,319,0.0,0.0,94,0.00,CLR,,0.00,WeatherDisplay:10.37,2013-09-06 02:05:00,
2013-09-05 22:10:00,61.4,59.3,30.15,NW,319,0.0,0.0,93,0.00,CLR,,0.00,WeatherDisplay:10.37,2013-09-06 02:10:00,
2013-09-05 22:15:00,61.2,59.5,30.16,NW,319,0.0,0.0,94,0.00,CLR,,0.00,WeatherDisplay:10.37,2013-09-06 02:15:00,
2013-09-05 22:20:00,61.1,59.4,30.16,NW,319,0.0,0.0,94,0.00,CLR,,0.00,WeatherDisplay:10.37,2013-09-06 02:20:00,
2013-09-05 22:25:00,61.0,59.3,30.16,NW,319,0.0,0.0,94,0.00,CLR,,0.00,WeatherDisplay:10.37,2013-09-06 02:25:00,
2013-09-05 22:30:00,60.8,59.1,30.16,NW,319,0.0,0.0,94,0.00,CLR,,0.00,WeatherDisplay:10.37,2013-09-06 02:30:00,
2013-09-05 22:35:00,60.5,58.8,30.16,NW,319,0.0,0.0,94,0.00,CLR,,0.00,WeatherDisplay:10.37,2013-09-06 02:35:00,
2013-09-05 22:40:00,60.5,59.1,30.16,NW,319,0.0,0.0,95,0.00,CLR,,0.00,WeatherDisplay:10.37,2013-09-06 02:40:00,
2013-09-05 22:45:00,60.4,59.0,30.16,NW,319,0.0,0.0,95,0.00,CLR,,0.00,WeatherDisplay:10.37,2013-09-06 02:45:00,
2013-09-05 22:50:00,60.2,58.8,30.16,NW,319,0.0,0.0,95,0.00,CLR,,0.00,WeatherDisplay:10.37,2013-09-06 02:50:00,
2013-09-05 22:55:00,60.0,58.6,30.16,NW,319,0.0,0.0,95,0.00,CLR,,0.00,WeatherDisplay:10.37,2013-09-06 02:55:00,
2013-09-05 23:00:00,59.9,58.5,30.16,NW,319,0.0,0.0,95,0.00,CLR,,0.00,WeatherDisplay:10.37,2013-09-06 03:00:00,
2013-09-05 23:05:00,59.7,58.3,30.16,NW,319,0.0,0.0,95,0.00,CLR,,0.00,WeatherDisplay:10.37,2013-09-06 03:05:00,
2013-09-05 23:10:00,59.5,58.1,30.16,NW,319,0.0,0.0,95,0.00,CLR,,0.00,WeatherDisplay:10.37,2013-09-06 03:10:00,
2013-09-05 23:15:00,59.3,57.9,30.16,NW,319,0.0,0.0,95,0.00,CLR,,0.00,WeatherDisplay:10.37,2013-09-06 03:15:00,
2013-09-05 23:20:00,59.3,58.2,30.17,NW,319,0.0,0.0,96,0.00,CLR,,0.00,WeatherDisplay:10.37,2013-09-06 03:20:00,
2013-09-05 23:25:00,59.3,58.1,30.17,NW,319,0.0,0.0,96,0.00,CLR,,0.00,WeatherDisplay:10.37,2013-09-06 03:25:00,
2013-09-05 23:30:00,59.1,58.0,30.17,NW,319,0.0,0.0,96,0.00,CLR,,0.00,WeatherDisplay:10.37,2013-09-06 03:30:00,
2013-09-05 23:35:00,59.0,57.9,30.17,NW,319,0.0,0.0,96,0.00,CLR,,0.00,WeatherDisplay:10.37,2013-09-06 03:35:00,
2013-09-05 23:40:00,59.0,57.9,30.17,NW,319,0.0,0.0,96,0.00,CLR,,0.00,WeatherDisplay:10.37,2013-09-06 03:40:00,
2013-09-05 23:45:00,58.9,57.8,30.17,NW,319,0.0,0.0,96,0.00,CLR,,0.00,WeatherDisplay:10.37,2013-09-06 03:45:00,
2013-09-05 23:50:00,59.0,58.2,30.17,NW,319,0.0,0.0,97,0.00,CLR,,0.00,WeatherDisplay:10.37,2013-09-06 03:50:00,
2013-09-05 23:55:00,59.0,58.2,30.17,NW,319,0.0,0.0,97,0.00,CLR,,0.00,WeatherDisplay:10.37,2013-09-06 03:55:00,